Waarnemingen

Advertentie
Mijn weer
Santander, Spanje (8023): temperatuur & dauwpunt: 16.10.2017 14:00:00 - 22.10.2017 14:00:00 (CEST)Santander, Spanje (8023): windsnelheid: 16.10.2017 14:00:00 - 22.10.2017 14:00:00 (CEST)Santander, Spanje (8023): windrichting: 16.10.2017 14:00:00 - 22.10.2017 14:00:00 (CEST)Santander, Spanje (8023): luchtdruk: 16.10.2017 14:00:00 - 22.10.2017 14:00:00 (CEST)Santander, Spanje (8023): zicht: 16.10.2017 14:00:00 - 22.10.2017 14:00:00 (CEST)Santander, Spanje (8023): neerslag: 16.10.2017 14:00:00 - 22.10.2017 14:00:00 (CEST)
Datum & Tijd tt [°C] td [°C] ff [km/u] ff [kn] dd ppp [hPa] vv [km] rr [mm]
22.10.2017 14:00:00 - - - - - - - -
22.10.2017 13:00:00 16,1 10,0 21 11 W 1030,1 9 0,0
22.10.2017 12:00:00 14,8 10,6 28 15 WNW 1030,1 7 0,8
22.10.2017 11:00:00 14,9 11,1 21 11 NW 1030,0 10 -
22.10.2017 10:00:00 14,2 11,9 29 16 NW 1029,8 4,4 0,0
22.10.2017 09:00:00 15,1 10,3 26 14 WNW 1029,1 6 0,0
22.10.2017 08:00:00 13,5 8,8 15 8 WZW 1029,0 12 -
22.10.2017 07:00:00 14,2 9,2 15 8 W 1028,8 8 0,0
22.10.2017 06:00:00 14,7 9,9 18 10 W 1028,0 7 0,0
22.10.2017 05:00:00 14,9 9,9 29 16 WNW 1028,1 12 -
22.10.2017 04:00:00 14,3 10,3 21 11 WNW 1028,2 - 0,0
22.10.2017 03:00:00 13,6 11,3 42 23 NW 1028,4 4,4 0,0
22.10.2017 02:00:00 14,5 10,9 35 19 WNW 1028,4 12 -
22.10.2017 01:00:00 15,0 9,6 28 15 WNW 1028,3 6 0,2
22.10.2017 00:00:00 13,8 10,6 35 19 W 1028,6 3,0 0,4
21.10.2017 23:00:00 15,2 10,8 34 18 NW 1027,8 14 -
21.10.2017 22:00:00 16,3 9,5 34 18 WNW 1027,5 - 0,0
21.10.2017 21:00:00 16,2 9,8 34 18 WNW 1027,3 6 0,0
21.10.2017 20:00:00 16,4 10,3 34 18 WNW 1026,9 15 -
21.10.2017 19:00:00 16,3 10,2 29 16 WNW 1026,3 - 0,0
21.10.2017 18:00:00 16,9 10,0 37 20 NW 1026,0 - 0,0
21.10.2017 17:00:00 17,2 8,6 35 19 NW 1025,5 20 -
21.10.2017 16:00:00 17,2 9,6 41 22 NW 1024,8 6 0,0
21.10.2017 15:00:00 16,9 10,5 35 19 NW 1024,6 6 0,0
21.10.2017 14:00:00 17,4 11,2 34 18 NW 1024,5 20 -
21.10.2017 13:00:00 17,6 11,8 35 19 WNW 1024,6 8 0,0
21.10.2017 12:00:00 18,0 9,6 26 14 WNW 1024,3 10 0,0
21.10.2017 11:00:00 16,7 10,8 13 7 WZW 1024,1 15 -
21.10.2017 10:00:00 15,9 11,1 11 6 ZW 1023,5 12 0,0
21.10.2017 09:00:00 15,6 12,0 13 7 ZW 1022,8 10 0,0
21.10.2017 08:00:00 15,3 13,3 16 9 W 1022,3 7 -
21.10.2017 07:00:00 15,8 11,0 39 21 W 1021,2 - 0,0
21.10.2017 06:00:00 17,1 13,2 31 17 WNW 1020,2 8 0,0
21.10.2017 05:00:00 16,5 13,6 35 19 WNW 1019,8 4,0 -
21.10.2017 04:00:00 17,2 14,1 26 14 W 1019,5 8 0,0
21.10.2017 03:00:00 17,5 14,8 42 23 NW 1018,5 6 0,0
21.10.2017 02:00:00 19,0 15,1 22 12 W 1016,5 20 -
21.10.2017 01:00:00 22,2 12,7 16 9 ZZW 1014,6 20 0,0
21.10.2017 00:00:00 22,8 11,5 22 12 ZZW 1014,0 20 0,0
20.10.2017 23:00:00 23,3 10,4 26 14 ZZW 1013,5 20 -
20.10.2017 22:00:00 21,7 10,8 18 10 ZZW 1013,6 20 0,0
20.10.2017 21:00:00 17,6 13,9 15 8 ZO 1013,8 11 0,0
20.10.2017 20:00:00 18,1 13,8 21 11 OZO 1014,1 20 -
20.10.2017 19:00:00 18,4 14,7 18 10 O 1014,3 10 0,0
20.10.2017 18:00:00 19,3 14,3 16 9 O 1014,7 12 0,0
20.10.2017 17:00:00 19,5 14,3 16 9 O 1015,4 20 -
20.10.2017 16:00:00 19,4 15,1 16 9 O 1015,7 16 0,0
20.10.2017 15:00:00 19,3 14,1 21 11 O 1015,9 18 0,0
20.10.2017 14:00:00 19,4 15,3 15 8 O 1016,5 20 -
20.10.2017 13:00:00 19,0 15,3 13 7 O 1016,8 16 0,0
20.10.2017 12:00:00 19,0 14,7 11 6 O 1016,8 15 0,0
20.10.2017 11:00:00 17,9 15,0 9 5 ZO 1017,0 30 -
20.10.2017 10:00:00 15,3 13,8 11 6 ZZO 1016,6 13 0,0
20.10.2017 09:00:00 15,5 14,2 11 6 Z 1016,2 11 0,0
20.10.2017 08:00:00 15,6 14,3 9 5 ZZW 1015,7 25 -
20.10.2017 07:00:00 15,4 14,8 4 2 WNW 1015,6 13 1,0
20.10.2017 06:00:00 15,7 15,1 13 7 W 1015,1 0,8 2,0
20.10.2017 05:00:00 16,1 13,9 11 6 WZW 1015,0 5 -
20.10.2017 04:00:00 16,9 11,4 9 5 WZW 1014,8 20 0,0
20.10.2017 03:00:00 16,5 12,1 15 8 Z 1014,3 20 0,0
20.10.2017 02:00:00 16,0 12,9 9 5 ZW 1014,5 25 -
20.10.2017 01:00:00 16,6 14,1 8 4 ZZW 1014,4 15 0,0
20.10.2017 00:00:00 17,4 13,1 15 8 W 1013,8 12 0,0
19.10.2017 23:00:00 18,1 11,2 11 6 WZW 1012,5 30 -
19.10.2017 22:00:00 17,9 11,5 5 3 WZW 1011,6 19 0,0
19.10.2017 21:00:00 16,8 11,7 13 7 Z 1010,7 20 0,0
19.10.2017 20:00:00 16,9 11,4 16 9 ZZO 1010,6 40 -
19.10.2017 19:00:00 17,1 12,6 15 8 ZO 1010,1 17 0,0
19.10.2017 18:00:00 17,6 12,3 13 7 O 1010,1 19 0,0
19.10.2017 17:00:00 18,4 11,9 11 6 O 1009,9 30 -
19.10.2017 16:00:00 18,2 11,3 9 5 NO 1009,9 19 0,0
19.10.2017 15:00:00 17,5 11,7 9 5 NO 1010,2 12 0,0
19.10.2017 14:00:00 17,4 11,7 8 4 NO 1010,6 40 -
19.10.2017 13:00:00 17,7 11,0 5 3 NNW 1011,5 12 0,0
19.10.2017 12:00:00 18,6 9,1 8 4 W 1011,6 17 0,0
19.10.2017 11:00:00 16,8 9,5 13 7 Z 1011,4 40 -
19.10.2017 10:00:00 15,2 8,9 15 8 Z 1011,5 19 0,0
19.10.2017 09:00:00 13,9 8,1 15 8 ZZW 1011,0 20 0,0
19.10.2017 08:00:00 14,2 8,2 13 7 ZZW 1010,8 10 -
19.10.2017 07:00:00 14,2 8,6 13 7 ZZW 1010,8 20 0,0
19.10.2017 06:00:00 14,2 8,8 13 7 Z 1010,9 20 0,0
19.10.2017 05:00:00 14,6 8,8 11 6 ZW 1011,0 10 -
19.10.2017 04:00:00 14,7 9,1 13 7 ZW 1010,9 20 0,0
19.10.2017 03:00:00 14,3 9,3 15 8 ZW 1010,9 20 0,0
19.10.2017 02:00:00 14,2 9,0 13 7 ZW 1011,0 10 -
19.10.2017 01:00:00 14,2 9,0 15 8 ZW 1011,0 20 0,0
19.10.2017 00:00:00 14,2 9,0 15 8 ZW 1011,2 20 0,0
18.10.2017 23:00:00 14,2 9,0 13 7 ZW 1011,3 10 -
18.10.2017 22:00:00 14,1 9,3 15 8 ZW 1011,0 20 0,0
18.10.2017 21:00:00 14,0 10,4 13 7 ZW 1010,9 18 0,2
18.10.2017 20:00:00 14,4 11,5 11 6 WZW 1010,6 9 -
18.10.2017 19:00:00 15,9 12,1 22 12 W 1009,9 16 0,0
18.10.2017 18:00:00 16,1 12,1 24 13 WNW 1009,7 15 0,0
18.10.2017 17:00:00 15,9 12,5 34 18 WNW 1009,5 14 -
18.10.2017 16:00:00 16,3 12,8 24 13 WNW 1009,3 12 0,0
18.10.2017 15:00:00 16,4 13,9 24 13 W 1009,4 7 0,2
18.10.2017 14:00:00 16,5 11,6 9 5 WZW 1009,9 10 -
18.10.2017 13:00:00 15,8 11,8 15 8 Z 1010,1 4,5 0,2
18.10.2017 12:00:00 - - - - - - - -
18.10.2017 11:00:00 17,6 8,2 22 12 ZZW 1009,1 15 -
18.10.2017 10:00:00 17,7 8,0 26 14 ZZW 1009,2 18 0,0
18.10.2017 09:00:00 17,4 7,4 16 9 ZZW 1009,0 18 0,0
18.10.2017 08:00:00 17,8 7,5 29 16 Z 1009,1 20 -
18.10.2017 07:00:00 17,5 7,8 18 10 Z 1009,4 19 0,0
18.10.2017 06:00:00 17,2 8,3 18 10 ZZO 1010,3 17 0,0
18.10.2017 05:00:00 16,1 11,0 21 11 ZZO 1010,8 20 -
18.10.2017 04:00:00 15,7 14,6 15 8 OZO 1011,7 6 0,0
18.10.2017 03:00:00 15,6 14,1 15 8 ZO 1012,4 - 0,0
18.10.2017 02:00:00 16,2 14,0 8 4 ZO 1013,1 10 -
18.10.2017 01:00:00 16,8 14,6 5 3 ZO 1013,6 9 0,0
18.10.2017 00:00:00 17,1 14,4 5 3 ONO 1014,1 9 0,0
17.10.2017 23:00:00 17,3 14,4 4 2 NNO 1014,8 10 -
17.10.2017 22:00:00 17,3 14,0 4 2 NNO 1014,6 9 0,0
17.10.2017 21:00:00 17,4 14,3 8 4 NNW 1014,8 8 0,0
17.10.2017 20:00:00 17,4 14,1 9 5 NNW 1014,7 10 -
17.10.2017 19:00:00 17,4 14,5 13 7 W 1014,5 8 0,0
17.10.2017 18:00:00 17,9 15,0 13 7 W 1014,8 7 0,0
17.10.2017 17:00:00 18,6 16,7 18 10 W 1014,6 6 -
17.10.2017 16:00:00 18,1 16,4 22 12 W 1014,6 4,0 0,0
17.10.2017 15:00:00 18,4 16,7 24 13 W 1014,4 4,9 0,0
17.10.2017 14:00:00 23,3 10,4 18 10 Z 1014,0 12 -
17.10.2017 13:00:00 23,2 10,3 21 11 Z 1014,6 20 0,0
17.10.2017 12:00:00 22,2 10,7 22 12 Z 1015,1 20 0,0
17.10.2017 11:00:00 22,4 10,2 22 12 ZZW 1015,6 12 -
17.10.2017 10:00:00 21,9 10,7 16 9 ZZW 1015,3 19 0,0
17.10.2017 09:00:00 21,5 9,7 18 10 Z 1015,0 20 0,0
17.10.2017 08:00:00 20,8 10,6 21 11 Z 1015,2 12 -
17.10.2017 07:00:00 18,1 11,9 18 10 Z 1015,5 17 0,0
17.10.2017 06:00:00 16,4 14,4 15 8 ZZO 1016,0 9 0,0
17.10.2017 05:00:00 16,2 14,7 13 7 ZO 1016,6 10 -
17.10.2017 04:00:00 16,8 15,3 13 7 OZO 1017,6 6 0,0
17.10.2017 03:00:00 17,3 15,6 15 8 O 1018,4 6 0,0
17.10.2017 02:00:00 17,7 15,9 24 13 O 1019,5 10 -
17.10.2017 01:00:00 17,8 15,6 26 14 O 1020,1 8 0,0
17.10.2017 00:00:00 17,9 15,2 22 12 O 1021,2 9 0,0
16.10.2017 23:00:00 18,1 15,4 22 12 O 1022,0 10 -
16.10.2017 22:00:00 17,5 15,7 11 6 ZO 1022,5 8 0,0
16.10.2017 21:00:00 17,9 15,3 11 6 O 1023,1 8 0,0
16.10.2017 20:00:00 18,3 15,0 8 4 NO 1023,4 8 -
16.10.2017 19:00:00 18,6 15,8 9 5 NNO 1023,2 6 0,0
16.10.2017 18:00:00 18,8 15,5 9 5 N 1023,1 9 0,0
16.10.2017 17:00:00 19,0 15,5 11 6 NNW 1023,0 10 -
16.10.2017 16:00:00 19,7 14,7 11 6 NNW 1022,8 11 0,0
16.10.2017 15:00:00 20,3 16,5 9 5 NW 1022,8 8 0,0
16.10.2017 14:00:00 20,3 16,5 15 8 WNW 1023,2 9 -

tt = temperatuur
td = dauwpunt
ff = windsnelheid
dd = windrichting
ppp = luchtdruk
vv = zicht
rr = neerslag

Weerstations in de omgeving